STARLINK-11706 [DTC] (63753 NORAD) Tracking and Keplerian Element Data

This shows tracking and keplerian element data for the satellite.

Feedback or suggestion? Click here.




ElementValue
Catalog63753
NameSTARLINK-11706 [DTC]
Epoch Orbit3764
Epoch Day354.24252371
Epoch Year2025
RAAN50.8507
Inclination43.0018
Eccentricity0.0001756
Argument of Perigee280.3796
Mean Anonmoly79.6873
Mean Motion15.70847739
Decay Rate0.00172962
L11 63753U 25089C 25354.24252371 .00172962 00000+0 13231-2 0 9991
L22 63753 43.0018 50.8507 0001756 280.3796 79.6873 15.70847739 37642



Live tracking and technical data element details for STARLINK-11706 [DTC] (NORAD 63753). STARLINK-11706 [DTC] can be tracked NOW for your location showing map with azimuth and elevation plus other details from your city location.







IsCatalogInMostPopularTable: catalog: 63753, numindb: 1
Update: records affected: 1



GetName: 63753 STARLINK-11706 [DTC]

Hit Count: updated at: Tue, 17 Feb 2026 12:46:05 GMT